Погода в Кирише

Турция     36°34′32″N   30°34′48″E
темп.,
°C
ветер,
м/с
пор.,
м/с
влажн.,
%
обл.,
%
осадки,
мм/ч
давл.,
гПа
погр.,
м
1 декабря, ср
ср100:00+13ссз136650 0.1 1009257
03:00+13с136496 0.3 1010454
06:00+12ююв137093 0.6 1011334
09:00+11сз22639 1.1 1012205
12:00+14ююз33443 0.0 10131613
15:00+14ююв43490 0.0 10121235
18:00+11в11620 0.0 1013193
21:00+10сз21540 0.0 1015216
2 декабря, чт
чт200:00+9сз22410 0.0 101699
03:00+9сз22390 0.0 101796
06:00+9ссз21420 0.0 101897
09:00+10сз21440 0.0 101981
12:00+14ю23510 0.0 1019816
15:00+14ююв33540 0.0 1018890
18:00+10ююв11710 0.0 1019152
21:00+10сз11757 0.0 1020187
3 декабря, пт
пт300:00+9сз21755 0.0 1021169
03:00+9ссз227524 0.0 1021121
06:00+9ссз33730 0.0 1021127
09:00+10ссз22650 0.0 1022124
12:00+13вюв1259100 0.0 1022789
15:00+13в2264100 0.0 1021722
18:00+11с1173100 0.0 102194
21:00+11ссз2274100 0.0 102278
4 декабря, сб
сб400:00+12ссз1171100 0.0 1022105
03:00+12с1172100 0.0 1021104
06:00+12ссз1176100 0.1 101983
09:00+12ссз1182100 0.5 1019104
12:00+12з118291 0.9 1019172
15:00+12ссв0287100 1.6 1016309
18:00+11ссв229570 1.0 1016127
21:00+11ссв118876 1.1 1015103
5 декабря, вс
вс500:00+12ссв1291100 1.2 1015100
03:00+12всв1289100 3.6 1014169
06:00+12в2384100 0.8 1013300
09:00+12вюв2478100 2.4 1014387
12:00+14ююв126764 0.4 1014600
15:00+15ююз226213 0.4 1013730
18:00+12юз22754 0.0 1015112
21:00+12з22774 0.0 1017101